Regional Weather Roundup
Issued by NWS Charleston, WV

Home | Current Version | Previous Version | Graphics & Text | Print | Product List | Glossary On
Versions: 1 2 3 4 5 6 7 8 9 10 11 12 13 14 15 16 17 18 19 20 21 22 23 24 25 26 27 28 29 30 31 32 33 34 35 36 37 38 39 40 41 42 43 44 45 46 47 48 49 50
626
ASUS41 KRLX 052010
RWRRLX
West Virginia Regional Weather Roundup
National Weather Service Charleston WV
300 PM EST FRI FEB 05 2016

Note: "fair" indicates few or no clouds below 12,000 feet with no
significant weather and/or obstructions to visibility.

WVZ003-052100-
Northern Panhandle of West Virginia

CITY           SKY/WX    TMP DP  RH WIND       PRES   REMARKS
WHEELING       PTSUNNY   34  15  46 SW8       30.33S
$$

WVZ009-052100-
Northwest West Virginia

CITY           SKY/WX    TMP DP  RH WIND       PRES   REMARKS
PARKERSBURG      N/A     39  17  41 W5        30.40S
$$

WVZ006-052100-
Western West Virginia

CITY           SKY/WX    TMP DP  RH WIND       PRES   REMARKS
HUNTINGTON       N/A     40  17  39 CALM      30.38F
$$

WVZ015-052100-
West Central West Virginia

CITY           SKY/WX    TMP DP  RH WIND       PRES   REMARKS
CHARLESTON       N/A     38  17  42 VRB3      30.38F
$$

WVZ022-031-052100-
North Central West Virginia

CITY           SKY/WX    TMP DP  RH WIND       PRES   REMARKS
CLARKSBURG       N/A     36  16  44 W7        30.34S
MORGANTOWN     PTSUNNY   37  13  37 W7        30.33S
$$

WVZ025-035-042-045-052100-
Southern West Virginia

CITY           SKY/WX    TMP DP  RH WIND       PRES   REMARKS
BECKLEY          N/A     34  12  40 N9        30.30S
LOGAN            N/A     37  14  38 NE6       30.34F
BLUEFIELD        N/A     32   9  38 N12       30.28S
LEWISBURG        N/A     37  11  34 N10       30.28S
$$

WVZ047-052100-
Northern Mountains of West Virginia

CITY           SKY/WX    TMP DP  RH WIND       PRES   REMARKS
ELKINS           N/A     33  13  43 W9        30.30S
$$

WVZ052-052100-
Eastern Panhandle of West Virginia

CITY           SKY/WX    TMP DP  RH WIND       PRES   REMARKS
MARTINSBURG      N/A     38  16  40 NW15G29   30.29S
PETERSBURG       N/A     39  15  36 NW10G17   30.32R
$$




USA.gov is the U.S. government's official web portal to all federal, state and local government web resources and services.